GW5555 Weather Reports


Display with metric or nautical units.
time (UTC)temp
F
wind
direction
speed
MPH
gust
MPH
rain 1hr
in
rain 24hr
in
rain mn
in
humidity
%
barometer
mb
20260906231101 62 33 8.0 9.0 0.00 0.75 0.75 78 1012.1
20260906230600 62 25 8.0 9.0 0.00 0.75 0.75 77 1012.3
20260906230055 62 39 7.0 8.0 0.00 0.75 0.75 78 1012.0
20260906225554 62 11 7.0 8.0 0.00 0.75 0.75 77 1012.4
20260906225050 62 25 7.0 8.0 0.00 0.75 0.75 78 1012.3
20260906224546 61 21 6.0 7.0 0.00 0.75 0.75 80 1012.7
20260906224042 61 8 4.0 6.0 0.00 0.75 0.75 80 1012.6
20260906223538 60 13 9.0 10.0 0.00 0.75 0.75 81 1012.5
20260906223037 60 3 8.0 10.0 0.00 0.75 0.75 81 1012.7
20260906222536 60 21 7.0 8.0 0.00 0.75 0.75 81 1012.7
20260906222034 60 24 8.0 9.0 0.00 0.75 0.75 81 1012.7
20260906221533 60 345 7.0 8.0 0.00 0.75 0.75 81 1012.4
20260906221029 59 4 5.0 7.0 0.00 0.75 0.75 82 1012.8
20260906220528 59 356 9.0 11.0 0.00 0.75 0.75 81 1012.9
20260906220024 60 358 7.0 9.0 0.00 0.75 0.75 81 1012.8
20260906215523 60 2 7.0 8.0 0.00 0.75 0.75 81 1012.7
20260906215021 60 0 7.0 8.0 0.00 0.75 0.75 81 1012.7
20260906214520 60 23 5.0 6.0 0.00 0.75 0.75 81 1012.6
20260906214015 60 330 6.0 8.0 0.00 0.75 0.75 80 1012.5
20260906213514 60 13 8.0 9.0 0.00 0.75 0.75 80 1012.7
20260906213009 60 346 6.0 7.0 0.00 0.75 0.75 81 1012.6
20260906212502 60 341 6.0 7.0 0.00 0.75 0.75 80 1012.6
20260906211958 60 18 5.0 7.0 0.00 0.75 0.75 81 1012.5
20260906211458 60 20 5.0 6.0 0.00 0.75 0.75 81 1012.6
20260906210954 60 17 6.0 8.0 0.00 0.75 0.75 81 1012.4
20260906210449 60 14 6.0 8.0 0.00 0.75 0.75 80 1012.5
20260906205947 60 26 9.0 11.0 0.00 0.75 0.75 80 1012.5
20260906205444 60 18 6.0 8.0 0.00 0.75 0.75 81 1012.4
20260906204940 59 3 11.0 13.0 0.00 0.75 0.75 81 1012.4
20260906204439 59 11 9.0 11.0 0.00 0.75 0.75 82 1012.5
20260906203938 59 4 11.0 11.0 0.00 0.75 0.75 82 1012.3
20260906203434 59 355 5.0 6.0 0.00 0.75 0.75 83 1012.4
20260906202931 58 4 11.0 16.0 0.00 0.75 0.75 82 1012.4
20260906202430 58 13 11.0 14.0 0.00 0.75 0.75 83 1012.5
20260906201925 58 29 9.0 10.0 0.00 0.75 0.75 83 1012.8
20260906201420 58 17 11.0 14.0 0.00 0.75 0.75 81 1012.6
20260906200915 58 5 8.0 10.0 0.00 0.75 0.75 81 1012.5
20260906200406 58 18 12.0 14.0 0.00 0.75 0.75 81 1012.3
20260906195905 58 3 12.0 14.0 0.00 0.75 0.75 81 1012.6
20260906195402 58 28 6.0 8.0 0.00 0.75 0.75 81 1012.6
20260906194857 59 8 4.0 4.0 0.00 0.75 0.75 80 1012.7
20260906194353 59 14 7.0 9.0 0.00 0.75 0.75 80 1012.5
20260906193848 59 28 6.0 9.0 0.00 0.75 0.75 79 1012.8
20260906193343 60 27 11.0 13.0 0.00 0.75 0.75 78 1012.8
20260906192839 61 7 4.0 4.0 0.00 0.75 0.75 78 1012.6
20260906192333 61 358 12.0 15.0 0.00 0.75 0.75 77 1012.7
20260906191832 61 26 9.0 10.0 0.00 0.75 0.75 75 1012.5
20260906191326 61 21 12.0 15.0 0.00 0.75 0.75 77 1012.7
20260906190821 60 16 15.0 17.0 0.00 0.75 0.75 77 1012.5
20260906190315 60 29 11.0 13.0 0.00 0.75 0.75 76 1012.5
20260906185814 60 4 14.0 16.0 0.00 0.75 0.75 76 1012.5
20260906185313 60 355 13.0 16.0 0.00 0.75 0.75 75 1012.6
20260906184808 61 26 11.0 13.0 0.00 0.75 0.75 76 1012.6
20260906184303 61 344 16.0 19.0 0.00 0.75 0.75 73 1012.3
20260906183759 60 26 9.0 10.0 0.00 0.75 0.75 77 1012.3
20260906183255 60 18 11.0 14.0 0.00 0.75 0.75 78 1012.4
20260906182755 59 22 13.0 15.0 0.00 0.75 0.75 77 1012.5
20260906182251 59 31 14.0 18.0 0.00 0.75 0.75 77 1012.5
20260906181746 57 27 12.0 16.0 0.00 0.75 0.75 79 1012.5
20260906181243 57 13 15.0 19.0 0.00 0.75 0.75 79 1012.5
20260906180743 56 20 13.0 15.0 0.00 0.75 0.75 80 1012.8
20260906180238 56 13 13.0 17.0 0.00 0.75 0.75 82 1013.0
20260906175735 56 18 11.0 14.0 0.00 0.75 0.75 84 1013.2
20260906175231 55 30 16.0 17.0 0.00 0.75 0.75 83 1013.5
20260906174730 55 34 9.0 11.0 0.00 0.75 0.75 87 1013.5
20260906174229 55 9 15.0 18.0 0.07 0.75 0.75 86 1013.4
20260906173725 55 39 10.0 14.0 0.07 0.75 0.75 88 1013.7
20260906173220 55 28 16.0 19.0 0.00 0.74 0.74 87 1013.6
20260906172719 54 24 11.0 13.0 0.00 0.74 0.74 90 1013.6
20260906172215 55 13 9.0 10.0 0.00 0.74 0.74 93 1013.5
20260906171709 53 26 12.0 16.0 0.00 0.74 0.74 93 1013.3
20260906171205 53 35 15.0 21.0 0.05 0.74 0.74 92 1013.5
20260906170701 53 12 10.0 13.0 0.05 0.74 0.74 92 1014.4
20260906170201 53 345 12.0 14.0 0.00 0.73 0.73 92 1014.7
20260906165657 53 25 7.0 8.0 0.00 0.73 0.73 91 1014.7
20260906165152 53 354 10.0 13.0 0.00 0.73 0.73 90 1015.1
20260906164651 54 338 6.0 8.0 0.00 0.73 0.73 90 1014.8
20260906164147 54 301 9.0 11.0 0.00 0.73 0.73 89 1014.7
20260906163642 54 14 8.0 9.0 0.00 0.73 0.73 89 1014.7
20260906163138 54 14 10.0 14.0 0.00 0.73 0.73 88 1014.5
20260906162635 54 18 10.0 13.0 0.00 0.73 0.73 89 1014.4
20260906162135 54 27 6.0 7.0 0.00 0.73 0.73 91 1014.5
20260906161630 54 42 7.0 9.0 0.00 0.73 0.73 92 1014.3
20260906161129 54 14 10.0 14.0 0.00 0.73 0.73 92 1014.1
20260906160628 53 39 14.0 19.0 0.00 0.73 0.73 93 1014.1
20260906160127 53 25 10.0 11.0 0.00 0.73 0.73 93 1014.2
20260906155624 53 24 12.0 17.0 0.00 0.73 0.73 93 1014.3
20260906155121 53 47 14.0 18.0 0.00 0.73 0.73 92 1014.6
20260906154616 53 14 11.0 15.0 0.00 0.73 0.73 92 1014.7
20260906154115 53 18 11.0 11.0 0.00 0.73 0.73 91 1014.7
20260906153614 53 24 10.0 11.0 0.00 0.73 0.73 92 1014.7
20260906153109 53 11 8.0 9.0 0.00 0.73 0.73 91 1014.8
20260906152608 53 31 9.0 10.0 0.07 0.73 0.73 92 1014.8
20260906152103 53 33 10.0 13.0 0.07 0.73 0.73 92 1014.7
20260906151558 53 26 12.0 15.0 0.00 0.72 0.72 93 1014.8
20260906151054 52 26 6.0 8.0 0.00 0.72 0.72 94 1014.7
20260906150549 52 14 8.0 9.0 0.00 0.72 0.72 95 1015.3
20260906150044 51 9 5.0 6.0 0.00 0.72 0.72 95 1015.4
20260906145542 51 292 7.0 11.0 0.35 0.72 0.72 95 1015.4
20260906145038 51 317 7.0 10.0 0.71 0.72 0.72 95 1015.3
20260906144532 51 20 5.0 6.0 0.73 0.68 0.68 95 1015.5
20260906144028 51 314 6.0 7.0 0.47 0.61 0.61 95 1015.8
20260906143523 51 340 8.0 11.0 0.28 0.56 0.56 95 1015.6
20260906143019 51 321 8.0 10.0 0.54 0.52 0.52 95 1015.8
20260906142518 51 297 9.0 11.0 0.73 0.51 0.51 95 1016.1
20260906142014 52 296 14.0 16.0 0.59 0.45 0.45 94 1016.2
20260906141514 53 289 11.0 15.0 0.35 0.40 0.40 94 1015.4
20260906141009 54 281 21.0 24.0 0.05 0.35 0.35 91 1015.2
20260906140509 54 208 5.0 7.0 0.00 0.34 0.34 90 1015.2
20260906140008 57 295 3.0 3.0 0.00 0.34 0.34 87 1015.3
20260906135505 59 90 1.0 1.0 0.00 0.34 0.34 83 1014.8
20260906135001 57 72 2.0 3.0 0.00 0.34 0.34 85 1014.5
20260906134456 57 33 3.0 3.0 0.00 0.34 0.34 85 1014.3
20260906133950 56 41 3.0 4.0 0.00 0.34 0.34 87 1014.4
20260906133446 56 32 7.0 8.0 0.00 0.34 0.34 88 1014.4
20260906132941 55 15 10.0 11.0 0.00 0.34 0.34 90 1014.5
20260906132436 55 5 9.0 11.0 0.00 0.34 0.34 90 1014.4
20260906131932 55 27 9.0 13.0 0.00 0.34 0.34 90 1014.1
20260906131427 54 29 10.0 10.0 0.00 0.34 0.34 91 1014.2
20260906130923 55 14 11.0 16.0 0.00 0.34 0.34 90 1014.5
20260906130423 55 22 13.0 15.0 0.00 0.34 0.34 90 1014.1
20260906125922 55 16 9.0 13.0 0.00 0.34 0.34 90 1014.4
20260906125420 56 22 6.0 8.0 0.00 0.34 0.34 87 1014.4
20260906124919 57 30 9.0 10.0 0.00 0.34 0.34 87 1014.6
20260906124416 57 43 7.0 9.0 0.00 0.34 0.34 86 1014.8
20260906123910 57 34 8.0 10.0 0.00 0.34 0.34 86 1014.6
20260906123410 57 6 11.0 13.0 0.00 0.34 0.34 84 1014.7
20260906122909 57 30 8.0 11.0 0.00 0.34 0.34 86 1014.7
20260906122404 56 45 9.0 10.0 0.00 0.34 0.34 86 1014.7
20260906121901 56 12 6.0 10.0 0.00 0.34 0.34 87 1014.7
20260906121357 55 25 10.0 14.0 0.00 0.34 0.34 87 1014.9
20260906120853 56 90 4.0 6.0 0.00 0.34 0.34 84 1015.5
20260906120348 54 329 12.0 18.0 0.00 0.34 0.34 87 1015.3
20260906115844 56 286 11.0 15.0 0.00 0.34 0.34 86 1015.3
20260906115339 57 280 5.0 6.0 0.00 0.34 0.34 82 1015.1
20260906114839 58 15 4.0 7.0 0.00 0.34 0.34 77 1014.6
20260906114334 58 50 8.0 9.0 0.00 0.34 0.34 74 1014.7
20260906113829 56 43 6.0 7.0 0.00 0.34 0.34 80 1014.6
20260906113328 56 21 5.0 8.0 0.00 0.34 0.34 82 1015.1
20260906112824 56 324 7.0 8.0 0.00 0.34 0.34 82 1014.8
20260906112320 56 15 4.0 7.0 0.00 0.34 0.34 80 1014.6
20260906111820 56 28 3.0 4.0 0.00 0.34 0.34 81 1014.8
20260906111319 56 30 8.0 9.0 0.00 0.34 0.34 80 1014.6
20260906110814 56 49 7.0 9.0 0.00 0.34 0.34 81 1014.6
20260906110311 55 28 12.0 15.0 0.00 0.34 0.34 82 1014.6
20260906105809 55 19 9.0 11.0 0.00 0.34 0.34 84 1014.4
20260906105306 55 44 10.0 11.0 0.00 0.34 0.34 85 1014.7
20260906104801 55 34 11.0 13.0 0.00 0.34 0.34 85 1014.6
20260906104259 55 58 9.0 10.0 0.00 0.34 0.34 84 1014.6
20260906103757 55 35 14.0 21.0 0.00 0.34 0.34 85 1014.9
20260906103257 54 29 14.0 16.0 0.00 0.34 0.34 88 1015.1
20260906102753 55 35 14.0 17.0 0.00 0.34 0.34 86 1014.9
20260906102251 55 44 15.0 18.0 0.00 0.34 0.34 86 1015.1
20260906101747 55 41 9.0 11.0 0.00 0.34 0.34 86 1015.1
20260906101242 55 37 14.0 15.0 0.00 0.34 0.34 87 1014.6
20260906100737 55 37 11.0 15.0 0.00 0.34 0.34 88 1015.1
20260906100237 55 15 7.0 8.0 0.00 0.34 0.34 89 1015.2
20260906095732 54 6 12.0 14.0 0.00 0.34 0.34 89 1014.9
20260906095227 55 4 11.0 13.0 0.00 0.34 0.34 89 1014.7
20260906094726 54 10 8.0 9.0 0.00 0.34 0.34 89 1015.1
20260906094222 54 17 9.0 10.0 0.00 0.34 0.34 91 1015.1
20260906093718 54 19 11.0 13.0 0.00 0.34 0.34 91 1015.1
20260906093213 54 22 12.0 15.0 0.00 0.34 0.34 91 1015.2
20260906092709 53 13 14.0 16.0 0.00 0.34 0.34 91 1015.3
20260906092208 54 17 9.0 11.0 0.00 0.34 0.34 91 1015.4
20260906091704 54 31 11.0 14.0 0.00 0.34 0.34 89 1015.5
20260906091200 54 2 12.0 13.0 0.14 0.34 0.34 89 1016.0
20260906090656 53 26 12.0 15.0 0.85 0.34 0.34 94 1016.2
20260906090155 53 35 9.0 11.0 1.13 0.32 0.32 95 1017.0
20260906085655 53 352 4.0 6.0 0.85 0.25 0.25 95 1017.0
20260906085154 53 275 4.0 4.0 0.24 0.14 0.14 96 1017.1
20260906084649 53 281 5.0 8.0 0.12 0.11 0.11 96 1017.0
20260906084148 52 305 9.0 13.0 0.12 0.10 0.10 96 1016.6
20260906083643 52 8 13.0 19.0 0.05 0.09 0.09 96 1016.1
20260906083139 52 6 14.0 17.0 0.00 0.08 0.08 96 1016.3
20260906082634 52 358 11.0 13.0 0.00 0.08 0.08 96 1016.1
20260906082129 51 3 12.0 15.0 0.00 0.08 0.08 96 1015.7
20260906081625 52 15 19.0 23.0 0.00 0.08 0.08 96 1015.4
20260906081120 52 26 14.0 18.0 0.07 0.08 0.08 95 1015.2
20260906080617 52 17 18.0 21.0 0.07 0.08 0.08 95 1015.2
20260906080113 52 20 13.0 15.0 0.00 0.07 0.07 95 1015.4
20260906075606 53 16 16.0 26.0 0.00 0.07 0.07 95 1015.5
20260906075101 53 8 14.0 17.0 0.00 0.07 0.07 95 1016.0
20260906074556 53 357 15.0 17.0 0.00 0.07 0.07 95 1016.2
20260906074055 53 340 9.0 11.0 0.00 0.07 0.07 94 1016.2
20260906073550 53 25 15.0 19.0 0.00 0.07 0.07 94 1016.1
20260906073046 53 19 16.0 18.0 0.00 0.07 0.07 94 1015.7
20260906072540 53 15 13.0 19.0 0.00 0.07 0.07 94 1015.5
20260906072037 53 18 15.0 18.0 0.00 0.07 0.07 94 1015.8
20260906071533 53 18 12.0 15.0 0.00 0.07 0.07 94 1015.8
20260906071028 53 9 15.0 18.0 0.00 0.07 0.07 94 1016.0
20260906070524 53 13 16.0 18.0 0.00 0.07 0.07 93 1016.4
20260906070020 53 8 15.0 19.0 0.07 0.07 0.07 93 1016.6
20260906065519 54 5 12.0 14.0 0.07 0.07 0.07 93 1016.6
20260906065015 54 9 17.0 19.0 0.00 0.06 0.06 93 1017.0
20260906064511 54 14 12.0 16.0 0.00 0.06 0.06 93 1016.5
20260906064005 54 19 14.0 19.0 0.00 0.06 0.06 93 1016.6
20260906063501 53 2 13.0 17.0 0.05 0.06 0.06 93 1016.7
20260906062956 53 8 14.0 17.0 0.17 0.06 0.06 94 1017.1
20260906062451 53 12 15.0 18.0 0.12 0.05 0.05 94 1017.5
20260906061946 53 16 14.0 16.0 0.00 0.03 0.03 94 1017.9
20260906061441 53 2 12.0 15.0 0.07 0.03 0.03 94 1017.6
20260906060935 53 1 17.0 19.0 0.19 0.03 0.03 94 1017.3
20260906060432 53 25 12.0 15.0 0.12 0.02 0.02 93 1017.1
20260906055929 53 2 13.0 18.0 0.00 0.24 0.24 92 1017.2
20260906055424 53 323 11.0 13.0 0.00 0.24 0.24 92 1017.0
20260906054920 53 2 15.0 18.0 0.00 0.24 0.24 92 1016.6
20260906054414 53 7 16.0 21.0 0.00 0.24 0.24 91 1016.9
20260906053910 53 352 11.0 13.0 0.00 0.24 0.24 91 1016.9
20260906053407 53 7 15.0 17.0 0.00 0.24 0.24 91 1017.0
20260906052902 53 345 13.0 16.0 0.00 0.24 0.24 91 1017.1
20260906052358 53 7 12.0 15.0 0.00 0.24 0.24 91 1016.7
20260906051855 53 18 11.0 11.0 0.00 0.24 0.24 91 1017.0
20260906051354 53 3 11.0 14.0 0.00 0.24 0.24 92 1016.6
20260906050850 53 20 21.0 25.0 0.05 0.24 0.24 91 1016.3
20260906050344 53 344 15.0 19.0 0.17 0.24 0.24 92 1016.7
20260906045844 54 358 15.0 18.0 0.12 0.23 0.23 90 1017.1
20260906045338 55 4 12.0 15.0 0.00 0.21 0.21 87 1017.7
20260906044835 55 351 12.0 15.0 0.00 0.21 0.21 86 1017.6
20260906044334 55 6 17.0 21.0 0.00 0.21 0.21 85 1016.7
20260906043830 54 9 14.0 17.0 0.00 0.21 0.21 86 1016.3
20260906043326 54 27 14.0 16.0 0.00 0.21 0.21 86 1016.3
20260906042826 54 26 15.0 22.0 0.00 0.21 0.21 86 1015.7
20260906042325 54 36 14.0 18.0 0.00 0.21 0.21 86 1016.0
20260906041821 54 31 16.0 21.0 0.00 0.21 0.21 86 1016.2
20260906041316 54 24 17.0 19.0 0.00 0.21 0.21 85 1016.0
20260906040811 54 62 12.0 14.0 0.00 0.21 0.21 87 1016.2
20260906040306 54 7 16.0 18.0 0.00 0.21 0.21 87 1016.3
20260906035801 53 1 12.0 15.0 0.14 0.21 0.21 88 1016.2
20260906035257 53 5 15.0 21.0 0.26 0.21 0.21 89 1015.8
20260906034758 53 14 18.0 24.0 0.28 0.19 0.19 89 1015.2
20260906034257 53 20 11.0 13.0 0.28 0.17 0.17 88 1017.7
20260906033753 53 22 9.0 14.0 0.31 0.14 0.14 88 1018.0
20260906033253 54 5 10.0 13.0 0.24 0.12 0.12 87 1017.5
20260906032750 55 9 13.0 18.0 0.12 0.09 0.09 83 1017.0
20260906032249 55 358 15.0 19.0 0.07 0.08 0.08 82 1016.9
20260906031744 57 347 15.0 17.0 0.00 0.07 0.07 78 1016.4